Flag for Canada Weather past 2 weeks in Prince Albert, Saskatchewan, Canada

Now
70 °F

Dense fog.


Feels Like: 70 °F
Forecast: 51 / 65 °F
Wind: 5 mph from West

Location: Prince Albert

Current Time: Jul 4, 2015 at 6:55:53 PM

Latest Report: Jul 4, 2015 at 6:00 PM


Visibility: 1 mi

Pressure: 29.83 "Hg

Humidity: 50%

Dew point: 50 °F

Location of Prince AlbertLocation

Historic Weather in Prince Albert — Graph

°F

Prince Albert temperature yesterday

Maximum temperature yesterday: 88 °F (at 2:00 PM)
Minimum temperature yesterday: 54 °F (at 5:00 AM)
Average temperature yesterday: 72 °F

Past Weeks' High & Low Weather Summary

 TemperatureHumidityPressure
High90 °F (Jun 28, 4:00 PM)100% (Jun 20, 3:00 AM)30.08 "Hg (Jun 20, 3:00 AM)
Low45 °F (Jun 23, 4:00 AM)31% (Jun 28, 5:00 PM)29.69 "Hg (Jul 3, 7:00 PM)
Average65 °F74%29.92 "Hg
* Reported Jun 19 5:00 PM — Jul 4 5:00 PM, Prince Albert, Weather by CustomWeather, © 2015

Note: Actual official high and low records may vary slightly from our data, if they occured in-between our weather recording intervals... More about our weather records

Advertising

Prince Albert weather history for previous 24 hours

 ConditionsComfort  
Time TempWeatherWind HumidityBarometerVisibility
5:00 PM
Sat, Jul 4
70 °FDense fog.3 mph53%29.84 "Hg1 mi
4:00 PM68 °FDense fog.5 mph53%29.83 "Hg1 mi
3:00 PM68 °FDense fog.6 mph49%29.83 "Hg1 mi
2:00 PM68 °FDense fog.13 mph53%29.82 "Hg0 mi
1:00 PM68 °FDense fog.12 mph60%29.81 "Hg1 mi
12:00 PM70 °FDense fog.9 mph60%29.80 "Hg1 mi
11:00 AM68 °FDense fog.6 mph60%29.77 "Hg1 mi
10:00 AM66 °FDense fog.2 mph64%29.78 "Hg1 mi
9:00 AM64 °FDense fog.5 mph68%29.76 "Hg1 mi
8:00 AM64 °FDense fog.10 mph64%29.72 "Hg1 mi
7:04 AM63 °FDense fog.2 mph77%29.77 "Hg1 mi
6:58 AM63 °FFog.3 mph77%29.76 "Hg2 mi
6:00 AM59 °FOvercast.5 mph94%29.75 "Hg3 mi
5:00 AM59 °FPartly sunny.3 mph88%29.73 "Hg15 mi
4:00 AM61 °FPassing clouds.5 mph83%29.72 "Hg15 mi
3:00 AM59 °FPassing clouds.6 mph88%29.71 "Hg15 mi
2:00 AM59 °FPassing clouds.6 mph88%29.71 "Hg15 mi
1:00 AM63 °FPassing clouds.2 mph83%29.72 "Hg15 mi
12:00 AM63 °FPartly cloudy.No wind83%29.71 "Hg15 mi
11:00 PM
Fri, Jul 3
70 °FPassing clouds.3 mph64%29.69 "Hg15 mi
10:00 PM70 °FMostly cloudy.5 mph60%29.72 "Hg12 mi
9:00 PM73 °FOvercast.7 mph61%29.72 "Hg8 mi
8:00 PM79 °FMore clouds than sun.8 mph51%29.70 "Hg8 mi
7:00 PM82 °FOvercast.10 mph48%29.69 "Hg8 mi
6:00 PM86 °FPartly sunny.16 mph43%29.70 "Hg10 mi
Weather by CustomWeather, © 2015

See weather overviewHow to use our weather pages